UAL796 KIAD-KSFO

Flight info

Callsign UAL796
Flight time N/A
Altitude 30000
Route MCRAY2 MCRAY Q178 DJB OBK DBQ ONL J148 CYS EKR LOOLO DTA RUMPS OAL INYOE DYAMD5
Aircraft B753/M-SDE2E3FGHIJ3J4J7RWXY/LB1

Departure

Time 2026-05-07 02:30
Airport Washington Dulles International Airport (KIAD)

Arrival

Time N/A
Airport San Francisco International Airport (KSFO)
Time Latitude Longitude Altitude Speed Heading
2026-05-07 01:53 38.94596 -77.44802 297 ft 0 kts 157°
2026-05-07 02:14 38.94597 -77.44803 297 ft 0 kts 157°
2026-05-07 02:14 38.94598 -77.44804 297 ft 0 kts 157°
2026-05-07 02:14 38.94599 -77.44804 297 ft 0 kts 157°
2026-05-07 02:14 38.94600 -77.44804 297 ft 0 kts 157°
2026-05-07 02:15 38.94614 -77.44812 296 ft 2 kts 157°
2026-05-07 02:15 38.94627 -77.44820 296 ft 2 kts 158°
2026-05-07 02:15 38.94642 -77.44821 296 ft 2 kts 198°
2026-05-07 02:15 38.94655 -77.44811 296 ft 2 kts 229°
2026-05-07 02:16 38.94662 -77.44795 296 ft 2 kts 260°
2026-05-07 02:16 38.94663 -77.44785 296 ft 1 kts 275°
2026-05-07 02:16 38.94662 -77.44781 296 ft 0 kts 271°
2026-05-07 02:22 38.94663 -77.44804 296 ft 5 kts 271°
2026-05-07 02:22 38.94664 -77.44853 295 ft 4 kts 271°
2026-05-07 02:22 38.94664 -77.44894 295 ft 5 kts 271°
2026-05-07 02:22 38.94664 -77.44972 295 ft 12 kts 270°
2026-05-07 02:23 38.94665 -77.45113 295 ft 19 kts 271°
2026-05-07 02:23 38.94667 -77.45287 295 ft 19 kts 271°
2026-05-07 02:23 38.94669 -77.45448 293 ft 17 kts 271°
2026-05-07 02:23 38.94662 -77.45570 292 ft 12 kts 245°
2026-05-07 02:24 38.94601 -77.45607 293 ft 8 kts 184°
2026-05-07 02:24 38.94548 -77.45610 293 ft 6 kts 182°
2026-05-07 02:24 38.94494 -77.45611 293 ft 10 kts 180°
2026-05-07 02:24 38.94395 -77.45611 294 ft 17 kts 180°
2026-05-07 02:25 38.94252 -77.45612 295 ft 24 kts 181°
2026-05-07 02:25 38.94068 -77.45617 295 ft 25 kts 181°
2026-05-07 02:25 38.93912 -77.45618 292 ft 18 kts 181°
2026-05-07 02:25 38.93787 -77.45622 291 ft 17 kts 180°
2026-05-07 02:26 38.93678 -77.45572 289 ft 17 kts 134°
2026-05-07 02:26 38.93614 -77.45503 288 ft 9 kts 162°
2026-05-07 02:26 38.93547 -77.45515 287 ft 9 kts 204°
2026-05-07 02:26 38.93484 -77.45548 286 ft 0 kts 202°
2026-05-07 02:27 38.93475 -77.45553 285 ft 3 kts 202°
2026-05-07 02:27 38.93469 -77.45556 285 ft 1 kts 198°
2026-05-07 02:27 38.93466 -77.45557 285 ft 0 kts 198°
2026-05-07 02:27 38.93449 -77.45564 285 ft 4 kts 201°
2026-05-07 02:28 38.93420 -77.45580 284 ft 2 kts 203°
2026-05-07 02:28 38.93394 -77.45599 284 ft 4 kts 220°
2026-05-07 02:28 38.93383 -77.45648 283 ft 8 kts 279°
2026-05-07 02:28 38.93405 -77.45740 284 ft 13 kts 290°
2026-05-07 02:29 38.93494 -77.46043 287 ft 70 kts 290°
2026-05-07 02:29 38.93757 -77.46938 296 ft 141 kts 291°
2026-05-07 02:29 38.94183 -77.48357 347 ft 196 kts 294°
2026-05-07 02:29 38.94713 -77.50169 628 ft 238 kts 292°
2026-05-07 02:30 38.95258 -77.52366 951 ft 285 kts 282°
2026-05-07 02:30 38.95289 -77.54993 1491 ft 283 kts 271°
2026-05-07 02:30 38.95148 -77.57442 1650 ft 274 kts 270°
2026-05-07 02:30 38.94996 -77.59849 2365 ft 270 kts 270°
2026-05-07 02:31 38.94864 -77.62208 3030 ft 267 kts 270°
2026-05-07 02:31 38.94830 -77.64563 3009 ft 259 kts 281°
2026-05-07 02:31 38.95485 -77.66647 3303 ft 255 kts 310°
2026-05-07 02:31 38.96917 -77.67953 4121 ft 259 kts 338°
2026-05-07 02:32 38.98744 -77.68233 4689 ft 279 kts
2026-05-07 02:32 39.00658 -77.67623 5383 ft 287 kts
2026-05-07 02:32 39.02628 -77.67229 5997 ft 290 kts 355°
2026-05-07 02:32 39.04649 -77.67327 6645 ft 292 kts 348°
2026-05-07 02:33 39.06651 -77.67661 7439 ft 290 kts 343°
2026-05-07 02:33 39.08620 -77.68112 8128 ft 292 kts 341°
2026-05-07 02:33 39.10618 -77.68655 8855 ft 293 kts 339°
2026-05-07 02:33 39.12609 -77.69240 9540 ft 297 kts 338°
2026-05-07 02:34 39.14622 -77.69858 10315 ft 296 kts 337°
2026-05-07 02:34 39.16664 -77.70512 10541 ft 316 kts 337°
2026-05-07 02:34 39.18871 -77.71222 10814 ft 332 kts 338°
2026-05-07 02:34 39.21159 -77.71960 11051 ft 352 kts 338°
2026-05-07 02:35 39.23585 -77.72746 11334 ft 369 kts 338°
2026-05-07 02:35 39.26133 -77.73568 11832 ft 377 kts 338°
2026-05-07 02:35 39.28671 -77.74387 12645 ft 375 kts 339°
2026-05-07 02:35 39.31187 -77.75203 13208 ft 382 kts 338°
2026-05-07 02:36 39.33787 -77.76048 13822 ft 384 kts 338°
2026-05-07 02:36 39.36357 -77.76881 14506 ft 384 kts 338°
2026-05-07 02:36 39.38943 -77.77747 14990 ft 387 kts 334°
2026-05-07 02:36 39.41407 -77.79029 15740 ft 375 kts 326°
2026-05-07 02:37 39.43792 -77.80406 16211 ft 382 kts 327°
2026-05-07 02:37 39.46236 -77.81783 16767 ft 385 kts 326°
2026-05-07 02:37 39.48683 -77.83174 17044 ft 388 kts 325°
2026-05-07 02:37 39.50973 -77.84887 17021 ft 371 kts 314°
2026-05-07 02:38 39.52855 -77.87053 17043 ft 357 kts 303°
2026-05-07 02:38 39.54314 -77.89631 17048 ft 347 kts 292°
2026-05-07 02:38 39.55389 -77.92368 17018 ft 341 kts 289°
2026-05-07 02:38 39.56389 -77.95167 17033 ft 344 kts 287°
2026-05-07 02:39 39.57354 -77.98023 17030 ft 344 kts 287°
2026-05-07 02:39 39.58278 -78.00848 17024 ft 339 kts 287°
2026-05-07 02:39 39.59177 -78.03667 17141 ft 343 kts 286°
2026-05-07 02:39 39.60067 -78.06502 17950 ft 338 kts 286°
2026-05-07 02:40 39.60942 -78.09318 18467 ft 340 kts 285°
2026-05-07 02:40 39.61817 -78.12159 18945 ft 342 kts 285°
2026-05-07 02:40 39.62691 -78.15010 19432 ft 345 kts 285°
2026-05-07 02:40 39.63571 -78.17886 20049 ft 343 kts 284°
2026-05-07 02:41 39.64450 -78.20770 20472 ft 345 kts 285°
2026-05-07 02:41 39.65334 -78.23670 20927 ft 346 kts 285°
2026-05-07 02:41 39.66218 -78.26575 21276 ft 351 kts 284°
2026-05-07 02:41 39.67113 -78.29526 21817 ft 348 kts 284°
2026-05-07 02:42 39.68002 -78.32459 22111 ft 354 kts 284°
2026-05-07 02:42 39.68890 -78.35388 22777 ft 348 kts 283°
2026-05-07 02:42 39.69773 -78.38320 22934 ft 356 kts 284°
2026-05-07 02:42 39.70665 -78.41265 23619 ft 350 kts 284°
2026-05-07 02:43 39.71559 -78.44234 23827 ft 357 kts 283°
2026-05-07 02:43 39.72457 -78.47217 24227 ft 357 kts 283°
2026-05-07 02:43 39.73360 -78.50214 24601 ft 359 kts 284°
2026-05-07 02:43 39.74276 -78.53266 24924 ft 362 kts 283°
2026-05-07 02:44 39.75179 -78.56266 25351 ft 362 kts 283°
2026-05-07 02:44 39.76105 -78.59364 25704 ft 363 kts 284°
2026-05-07 02:44 39.77012 -78.62375 26230 ft 361 kts 282°
2026-05-07 02:44 39.77929 -78.65462 26361 ft 367 kts 283°
2026-05-07 02:45 39.78846 -78.68516 26793 ft 367 kts 283°
2026-05-07 02:45 39.79769 -78.71612 27134 ft 369 kts 282°
2026-05-07 02:45 39.80690 -78.74700 27423 ft 371 kts 283°
2026-05-07 02:45 39.81623 -78.77838 27706 ft 374 kts 282°
2026-05-07 02:46 39.82563 -78.80988 28164 ft 372 kts 283°
2026-05-07 02:46 39.83488 -78.84110 28441 ft 375 kts 283°
2026-05-07 02:46 39.84436 -78.87300 28692 ft 378 kts 283°
2026-05-07 02:46 39.85371 -78.90448 29222 ft 374 kts 283°
2026-05-07 02:47 39.87251 -78.96806 29511 ft 383 kts 282°
2026-05-07 02:47 39.88203 -79.00028 29927 ft 380 kts 282°
2026-05-07 02:47 39.89143 -79.03198 29960 ft 374 kts 282°
2026-05-07 02:48 39.90991 -79.09480 29977 ft 374 kts 282°
2026-05-07 02:48 39.92848 -79.15804 29974 ft 375 kts 282°
2026-05-07 02:49 39.94702 -79.22124 29973 ft 371 kts 282°
2026-05-07 02:49 39.96536 -79.28397 29966 ft 372 kts 282°
2026-05-07 02:50 39.98384 -79.34734 29969 ft 375 kts 282°
2026-05-07 02:50 40.00274 -79.40978 29971 ft 377 kts 287°
2026-05-07 02:51 40.03137 -79.46834 29961 ft 384 kts 292°
2026-05-07 02:51 40.06104 -79.52641 29972 ft 386 kts 292°
2026-05-07 02:52 40.09086 -79.58469 29982 ft 387 kts 292°
2026-05-07 02:52 40.12050 -79.64256 29959 ft 382 kts 292°
2026-05-07 02:53 40.15002 -79.70047 29989 ft 386 kts 292°
2026-05-07 02:53 40.17974 -79.75870 29980 ft 384 kts 291°
2026-05-07 02:54 40.20919 -79.81652 29977 ft 379 kts 292°
2026-05-07 02:54 40.23820 -79.87362 29992 ft 383 kts 291°
2026-05-07 02:55 40.26763 -79.93163 29978 ft 380 kts 291°
2026-05-07 02:55 40.29662 -79.98888 29997 ft 379 kts 291°
2026-05-07 02:56 40.32574 -80.04649 29985 ft 380 kts 291°
2026-05-07 02:56 40.35488 -80.10432 29989 ft 381 kts 291°
2026-05-07 02:57 40.38398 -80.16202 29988 ft 377 kts 291°
2026-05-07 02:57 40.41277 -80.21935 29984 ft 378 kts 291°
2026-05-07 02:58 40.44163 -80.27689 29990 ft 379 kts 290°
2026-05-07 02:58 40.47052 -80.33453 29984 ft 378 kts 290°
2026-05-07 02:59 40.49920 -80.39188 29985 ft 376 kts 291°
2026-05-07 02:59 40.52780 -80.44923 29979 ft 378 kts 290°
2026-05-07 03:00 40.55645 -80.50674 29971 ft 375 kts 291°
2026-05-07 03:00 40.58480 -80.56379 29970 ft 376 kts 290°
2026-05-07 03:01 40.61355 -80.62176 29971 ft 377 kts 290°
2026-05-07 03:01 40.64198 -80.67911 29997 ft 372 kts 290°
2026-05-07 03:02 40.67018 -80.73623 29994 ft 375 kts 290°
2026-05-07 03:02 40.69822 -80.79292 29992 ft 366 kts 289°
2026-05-07 03:03 40.72598 -80.84940 30001 ft 373 kts 289°
2026-05-07 03:03 40.75419 -80.90675 29996 ft 371 kts 289°
2026-05-07 03:04 40.78189 -80.96320 29994 ft 364 kts 289°
2026-05-07 03:04 40.80938 -81.01941 29993 ft 370 kts 290°
2026-05-07 03:05 40.83711 -81.07604 29994 ft 368 kts 289°
2026-05-07 03:05 40.86491 -81.13307 29991 ft 369 kts 289°
2026-05-07 03:06 40.89233 -81.18935 29995 ft 365 kts 289°
2026-05-07 03:06 40.91974 -81.24571 29996 ft 365 kts 288°
2026-05-07 03:07 40.94698 -81.30187 29992 ft 364 kts 289°
2026-05-07 03:07 40.97449 -81.35868 30000 ft 370 kts 289°
2026-05-07 03:08 41.00215 -81.41586 30000 ft 366 kts 289°
2026-05-07 03:08 41.02919 -81.47183 29995 ft 364 kts 289°
2026-05-07 03:09 41.05667 -81.52900 29998 ft 369 kts 289°
2026-05-07 03:09 41.08415 -81.58611 29994 ft 368 kts 290°
2026-05-07 03:10 41.11156 -81.64324 29980 ft 370 kts 289°
2026-05-07 03:10 41.13932 -81.70118 30000 ft 373 kts 288°
2026-05-07 03:11 41.16680 -81.75857 30004 ft 364 kts 288°
2026-05-07 03:11 41.19386 -81.81540 30006 ft 371 kts 289°
2026-05-07 03:12 41.22154 -81.87347 29993 ft 372 kts 289°
2026-05-07 03:12 41.24926 -81.93182 29997 ft 372 kts 290°
2026-05-07 03:13 41.27671 -81.98963 30000 ft 375 kts 290°
2026-05-07 03:13 41.30450 -82.04827 29992 ft 374 kts 290°
2026-05-07 03:14 41.33203 -82.10650 29998 ft 372 kts 290°
2026-05-07 03:14 41.35693 -82.16618 29993 ft 362 kts 279°
2026-05-07 03:15 41.36359 -82.19809 30003 ft 355 kts 276°
2026-05-07 03:15 41.37515 -82.26144 29990 ft 353 kts 276°
2026-05-07 03:16 41.38652 -82.32511 29986 ft 360 kts 276°
2026-05-07 03:16 41.39794 -82.38972 29974 ft 356 kts 276°
2026-05-07 03:17 41.40906 -82.45332 29980 ft 356 kts 275°
2026-05-07 03:17 41.42035 -82.51839 29962 ft 361 kts 276°
2026-05-07 03:18 41.43155 -82.58312 29975 ft 361 kts 276°
2026-05-07 03:18 41.44269 -82.64766 29970 ft 359 kts 276°
2026-05-07 03:19 41.45392 -82.71323 30000 ft 365 kts 275°
2026-05-07 03:19 41.46442 -82.77460 29996 ft 361 kts 274°
2026-05-07 03:20 41.47548 -82.83966 30000 ft 361 kts 276°
2026-05-07 03:20 41.48658 -82.90502 29999 ft 363 kts 275°
2026-05-07 03:21 41.49761 -82.97024 29995 ft 361 kts 276°
2026-05-07 03:21 41.50854 -83.03516 29997 ft 362 kts 276°
2026-05-07 03:22 41.51958 -83.10091 29989 ft 362 kts 276°
2026-05-07 03:22 41.53059 -83.16685 29988 ft 363 kts 275°
2026-05-07 03:23 41.54153 -83.23257 29984 ft 365 kts 276°
2026-05-07 03:23 41.55251 -83.29869 29986 ft 364 kts 276°
2026-05-07 03:24 41.56334 -83.36422 29992 ft 362 kts 275°
2026-05-07 03:24 41.57420 -83.43026 29997 ft 365 kts 276°
2026-05-07 03:25 41.58508 -83.49646 29982 ft 367 kts 276°
2026-05-07 03:25 41.59586 -83.56240 29991 ft 364 kts 276°
2026-05-07 03:26 41.60660 -83.62852 29987 ft 367 kts 275°
2026-05-07 03:26 41.61743 -83.69520 30012 ft 367 kts 275°
2026-05-07 03:27 41.62814 -83.76157 30010 ft 367 kts 276°
2026-05-07 03:27 41.63885 -83.82806 30009 ft 368 kts 275°
2026-05-07 03:28 41.64949 -83.89450 30010 ft 365 kts 276°
2026-05-07 03:28 41.66008 -83.96090 30016 ft 367 kts 276°
2026-05-07 03:29 41.67074 -84.02793 30017 ft 367 kts 275°
2026-05-07 03:29 41.68126 -84.09429 30011 ft 367 kts 276°
2026-05-07 03:30 41.69180 -84.16125 30001 ft 371 kts 276°
2026-05-07 03:30 41.70240 -84.22855 29995 ft 369 kts 275°
2026-05-07 03:31 41.71283 -84.29527 30001 ft 368 kts 276°
2026-05-07 03:31 41.72331 -84.36251 29988 ft 371 kts 276°
2026-05-07 03:32 41.73379 -84.42999 29982 ft 370 kts 276°
2026-05-07 03:32 41.74418 -84.49721 29982 ft 369 kts 275°
2026-05-07 03:33 41.75454 -84.56458 29973 ft 371 kts 276°
2026-05-07 03:33 41.76487 -84.63197 29983 ft 371 kts 276°
2026-05-07 03:34 41.77514 -84.69925 29997 ft 371 kts 276°
2026-05-07 03:34 41.78540 -84.76670 30007 ft 370 kts 275°
2026-05-07 03:35 41.79570 -84.83477 29991 ft 374 kts 276°
2026-05-07 03:35 41.80592 -84.90242 30005 ft 371 kts 275°
2026-05-07 03:36 41.81613 -84.97054 30005 ft 373 kts 276°
2026-05-07 03:36 41.82623 -85.03795 30022 ft 372 kts 275°
2026-05-07 03:37 41.83636 -85.10617 29997 ft 373 kts 275°
2026-05-07 03:37 41.84641 -85.17387 30007 ft 372 kts 276°
2026-05-07 03:38 41.85646 -85.24206 30002 ft 373 kts 276°
2026-05-07 03:38 41.86651 -85.31046 29996 ft 373 kts 275°
2026-05-07 03:39 41.87643 -85.37832 29991 ft 374 kts 276°
2026-05-07 03:39 41.88642 -85.44680 29990 ft 375 kts 276°
2026-05-07 03:40 41.89634 -85.51520 29995 ft 374 kts 276°
2026-05-07 03:40 41.90624 -85.58381 30011 ft 375 kts 276°
2026-05-07 03:41 41.91610 -85.65233 29991 ft 375 kts 275°
2026-05-07 03:41 41.92589 -85.72081 30012 ft 376 kts 275°
2026-05-07 03:42 41.93572 -85.78983 30011 ft 376 kts 275°
2026-05-07 03:42 41.94541 -85.85805 30013 ft 374 kts 276°
2026-05-07 03:43 41.95511 -85.92676 30012 ft 377 kts 275°
2026-05-07 03:43 41.96484 -85.99586 30022 ft 376 kts 275°
2026-05-07 03:44 41.97446 -86.06476 30003 ft 379 kts 276°
2026-05-07 03:44 41.98412 -86.13401 30007 ft 377 kts 275°
2026-05-07 03:45 41.99370 -86.20319 30018 ft 379 kts 275°
2026-05-07 03:45 42.00330 -86.27283 30004 ft 378 kts 276°
2026-05-07 03:46 42.01284 -86.34228 30028 ft 378 kts 276°
2026-05-07 03:46 42.02228 -86.41133 30022 ft 381 kts 276°
2026-05-07 03:47 42.03185 -86.48160 30016 ft 381 kts 276°
2026-05-07 03:47 42.04126 -86.55118 30021 ft 381 kts 276°
2026-05-07 03:48 42.05076 -86.62165 30006 ft 383 kts 276°
2026-05-07 03:48 42.06019 -86.69199 30025 ft 382 kts 276°
2026-05-07 03:49 42.06956 -86.76218 30025 ft 381 kts 276°
2026-05-07 03:49 42.07886 -86.83225 30029 ft 385 kts 276°
2026-05-07 03:50 42.08818 -86.90276 30020 ft 383 kts 276°
2026-05-07 03:50 42.09750 -86.97360 30014 ft 386 kts 276°
2026-05-07 03:51 42.10682 -87.04480 30018 ft 385 kts 276°
2026-05-07 03:51 42.11602 -87.11549 30028 ft 388 kts 276°
2026-05-07 03:52 42.12530 -87.18707 30022 ft 387 kts 276°
2026-05-07 03:52 42.13446 -87.25828 30016 ft 388 kts 276°
2026-05-07 03:53 42.14362 -87.32966 30008 ft 388 kts 276°
2026-05-07 03:53 42.15275 -87.40116 30024 ft 389 kts 277°
2026-05-07 03:54 42.16183 -87.47274 30022 ft 391 kts 277°
2026-05-07 03:54 42.17096 -87.54497 30022 ft 389 kts 277°
2026-05-07 03:55 42.17998 -87.61676 30032 ft 392 kts 276°
2026-05-07 03:55 42.18899 -87.68898 30054 ft 393 kts 276°
2026-05-07 03:56 42.19799 -87.76140 30048 ft 392 kts 276°
2026-05-07 03:56 42.20695 -87.83389 30049 ft 392 kts 276°
2026-05-07 03:57 42.21582 -87.90604 30062 ft 392 kts 276°
2026-05-07 03:57 42.22331 -87.97913 30045 ft 392 kts 274°
2026-05-07 03:58 42.22900 -88.05176 30046 ft 392 kts 274°
2026-05-07 03:58 42.23463 -88.12476 30041 ft 392 kts 274°
2026-05-07 03:59 42.24020 -88.19807 30036 ft 392 kts 274°
2026-05-07 03:59 42.24566 -88.27080 30032 ft 393 kts 273°
2026-05-07 04:00 42.25113 -88.34412 30020 ft 394 kts 274°
2026-05-07 04:00 42.25655 -88.41775 30019 ft 394 kts 274°
2026-05-07 04:01 42.26191 -88.49113 30022 ft 395 kts 274°
2026-05-07 04:01 42.26725 -88.56486 30022 ft 395 kts 274°
2026-05-07 04:02 42.27251 -88.63830 30012 ft 395 kts 274°
2026-05-07 04:02 42.27775 -88.71206 30042 ft 397 kts 273°
2026-05-07 04:03 42.28296 -88.78590 30044 ft 397 kts 273°
2026-05-07 04:03 42.28816 -88.86041 30043 ft 397 kts 273°
2026-05-07 04:04 42.29327 -88.93425 30057 ft 397 kts 273°
2026-05-07 04:04 42.29834 -89.00836 30053 ft 398 kts 273°
2026-05-07 04:05 42.30337 -89.08244 30045 ft 398 kts 273°
2026-05-07 04:05 42.30839 -89.15730 30033 ft 399 kts 273°
2026-05-07 04:06 42.31332 -89.23144 30054 ft 399 kts 273°
2026-05-07 04:06 42.31825 -89.30624 30060 ft 400 kts 273°
2026-05-07 04:07 42.32309 -89.38068 30039 ft 400 kts 273°
2026-05-07 04:07 42.32792 -89.45543 30046 ft 400 kts 274°
2026-05-07 04:08 42.33270 -89.53017 30047 ft 401 kts 274°
2026-05-07 04:08 42.33743 -89.60507 30061 ft 401 kts 273°
2026-05-07 04:09 42.34210 -89.67983 30059 ft 401 kts 273°
2026-05-07 04:09 42.34676 -89.75503 30052 ft 402 kts 273°
2026-05-07 04:10 42.35117 -89.82700 30047 ft 401 kts 273°
2026-05-07 04:10 42.35572 -89.90208 30037 ft 402 kts 272°
2026-05-07 04:11 42.36023 -89.97752 30040 ft 402 kts 272°
2026-05-07 04:11 42.36469 -90.05265 30041 ft 403 kts 273°
2026-05-07 04:12 42.36910 -90.12789 30041 ft 403 kts 273°
2026-05-07 04:12 42.37344 -90.20279 30042 ft 403 kts 273°
2026-05-07 04:13 42.37776 -90.27818 30036 ft 403 kts 273°
2026-05-07 04:13 42.38205 -90.35400 30047 ft 404 kts 273°
2026-05-07 04:14 42.38628 -90.42960 30039 ft 405 kts 273°
2026-05-07 04:14 42.39045 -90.50509 30046 ft 404 kts 272°
2026-05-07 04:15 42.39457 -90.58051 30055 ft 405 kts 273°
2026-05-07 04:15 42.39867 -90.65640 30046 ft 405 kts 272°
2026-05-07 04:16 42.40252 -90.73262 30055 ft 405 kts 272°
2026-05-07 04:16 42.40574 -90.80826 30055 ft 405 kts 271°
2026-05-07 04:17 42.40895 -90.88433 30048 ft 405 kts 272°
2026-05-07 04:17 42.41209 -90.95998 30038 ft 406 kts 272°
2026-05-07 04:18 42.41520 -91.03595 30049 ft 405 kts 272°
2026-05-07 04:18 42.41825 -91.11182 30046 ft 406 kts 271°
2026-05-07 04:19 42.42127 -91.18814 30054 ft 407 kts 271°
2026-05-07 04:19 42.42424 -91.26455 30044 ft 408 kts 271°
2026-05-07 04:20 42.42716 -91.34098 30047 ft 408 kts 272°
2026-05-07 04:20 42.43003 -91.41728 30034 ft 408 kts 271°
2026-05-07 04:21 42.43407 -91.52768 30040 ft 409 kts 272°
2026-05-07 04:21 42.43694 -91.60722 30040 ft 410 kts 272°
2026-05-07 04:22 42.43965 -91.68417 30054 ft 409 kts 271°
2026-05-07 04:22 42.44230 -91.76088 30037 ft 409 kts 271°
2026-05-07 04:23 42.44490 -91.83777 30042 ft 411 kts 271°
2026-05-07 04:23 42.44747 -91.91515 30060 ft 410 kts 271°
2026-05-07 04:24 42.44996 -91.99167 30054 ft 411 kts 271°
2026-05-07 04:24 42.45242 -92.06890 30062 ft 411 kts 271°
2026-05-07 04:25 42.45482 -92.14570 30048 ft 410 kts 271°
2026-05-07 04:25 42.45718 -92.22291 30056 ft 411 kts 271°
2026-05-07 04:26 42.45948 -92.30009 30055 ft 412 kts 271°
2026-05-07 04:26 42.46173 -92.37742 30051 ft 412 kts 271°
2026-05-07 04:27 42.46395 -92.45506 30047 ft 414 kts 271°
2026-05-07 04:27 42.46611 -92.53271 30039 ft 414 kts 272°
2026-05-07 04:28 42.46822 -92.61042 30040 ft 414 kts 271°
2026-05-07 04:28 42.47027 -92.68797 30050 ft 414 kts 271°
2026-05-07 04:29 42.47228 -92.76580 30051 ft 415 kts 271°
2026-05-07 04:29 42.47424 -92.84393 30052 ft 415 kts 271°
2026-05-07 04:30 42.47614 -92.92166 30054 ft 416 kts 271°
2026-05-07 04:30 42.47799 -92.99966 30059 ft 417 kts 271°
2026-05-07 04:31 42.47980 -93.07809 30046 ft 416 kts 271°
2026-05-07 04:31 42.48155 -93.15610 30048 ft 416 kts 271°
2026-05-07 04:32 42.48325 -93.23431 30043 ft 418 kts 271°
2026-05-07 04:32 42.48489 -93.31238 30043 ft 417 kts 272°
2026-05-07 04:33 42.48650 -93.39102 30039 ft 416 kts 272°
2026-05-07 04:33 42.48803 -93.46913 30039 ft 418 kts 272°
2026-05-07 04:34 42.48951 -93.54756 30032 ft 419 kts 272°
2026-05-07 04:34 42.49096 -93.62649 30020 ft 419 kts 272°
2026-05-07 04:35 42.49234 -93.70511 30030 ft 420 kts 271°
2026-05-07 04:35 42.49368 -93.78426 30028 ft 420 kts 271°
2026-05-07 04:36 42.49497 -93.86306 30024 ft 421 kts 271°
2026-05-07 04:36 42.49620 -93.94241 30024 ft 420 kts 272°
2026-05-07 04:37 42.49737 -94.02157 30009 ft 422 kts 272°
2026-05-07 04:37 42.49850 -94.10085 30018 ft 422 kts 272°
2026-05-07 04:38 42.49957 -94.18008 30020 ft 421 kts 272°
2026-05-07 04:38 42.50058 -94.25897 30018 ft 421 kts 272°
2026-05-07 04:39 42.50153 -94.33784 30030 ft 420 kts 272°
2026-05-07 04:39 42.50243 -94.41657 30021 ft 420 kts 272°
2026-05-07 04:40 42.50328 -94.49601 30015 ft 422 kts 272°
2026-05-07 04:40 42.50408 -94.57536 30002 ft 421 kts 273°
2026-05-07 04:41 42.50482 -94.65411 30016 ft 421 kts 272°
2026-05-07 04:41 42.50550 -94.73334 30018 ft 423 kts 272°
2026-05-07 04:42 42.50613 -94.81259 30020 ft 420 kts 273°
2026-05-07 04:42 42.50672 -94.89168 30013 ft 422 kts 273°
2026-05-07 04:43 42.50725 -94.97134 30017 ft 423 kts 273°
2026-05-07 04:43 42.50771 -95.05042 30014 ft 422 kts 273°
2026-05-07 04:44 42.50812 -95.12962 30013 ft 422 kts 274°
2026-05-07 04:44 42.50848 -95.20899 30008 ft 423 kts 274°
2026-05-07 04:45 42.50879 -95.28852 30015 ft 423 kts 274°
2026-05-07 04:45 42.50903 -95.36803 30017 ft 422 kts 274°
2026-05-07 04:46 42.50923 -95.44783 30014 ft 424 kts 274°
2026-05-07 04:46 42.50937 -95.52699 30009 ft 423 kts 274°
2026-05-07 04:47 42.50944 -95.60690 30006 ft 422 kts 274°
2026-05-07 04:47 42.50946 -95.68644 30009 ft 424 kts 274°
2026-05-07 04:48 42.50944 -95.76637 30008 ft 424 kts 274°
2026-05-07 04:48 42.50938 -95.84646 30017 ft 425 kts 274°
2026-05-07 04:49 42.50923 -95.92605 30008 ft 425 kts 274°
2026-05-07 04:49 42.50903 -96.00604 30013 ft 426 kts 275°
2026-05-07 04:50 42.50877 -96.08621 30007 ft 424 kts 275°
2026-05-07 04:50 42.50847 -96.16593 30000 ft 424 kts 275°
2026-05-07 04:51 42.50811 -96.24575 30009 ft 425 kts 275°
2026-05-07 04:51 42.50769 -96.32517 30006 ft 425 kts 275°
2026-05-07 04:52 42.50722 -96.40552 30003 ft 425 kts 275°
2026-05-07 04:52 42.50670 -96.48516 30005 ft 425 kts 276°
2026-05-07 04:53 42.50612 -96.56473 30003 ft 424 kts 276°
2026-05-07 04:53 42.50552 -96.64432 29999 ft 425 kts 276°
2026-05-07 04:54 42.50484 -96.72469 29998 ft 427 kts 276°
2026-05-07 04:54 42.50410 -96.80469 29995 ft 424 kts 276°
2026-05-07 04:55 42.50331 -96.88421 30001 ft 425 kts 276°
2026-05-07 04:55 42.50245 -96.96455 29997 ft 427 kts 276°
2026-05-07 04:56 42.50153 -97.04449 29991 ft 426 kts 276°
2026-05-07 04:56 42.50057 -97.12497 29986 ft 428 kts 276°
2026-05-07 04:57 42.49954 -97.20548 29989 ft 429 kts 276°
2026-05-07 04:57 42.49844 -97.28591 29980 ft 429 kts 276°
2026-05-07 04:58 42.49741 -97.35977 29987 ft 431 kts 276°
2026-05-07 04:58 42.49691 -97.39345 29982 ft 430 kts 277°
2026-05-07 04:59 42.49574 -97.47401 29990 ft 431 kts 276°
2026-05-07 04:59 42.49425 -97.55516 29982 ft 429 kts 276°
2026-05-07 05:00 42.49300 -97.63566 29973 ft 430 kts 276°
2026-05-07 05:00 42.49164 -97.71695 29986 ft 432 kts 276°
2026-05-07 05:01 42.49020 -97.79785 29977 ft 430 kts 276°
2026-05-07 05:01 42.48870 -97.87893 29977 ft 433 kts 276°
2026-05-07 05:02 42.48713 -97.96001 29982 ft 430 kts 276°
2026-05-07 05:02 42.48551 -98.04033 29980 ft 431 kts 276°
2026-05-07 05:03 42.48383 -98.12130 29980 ft 432 kts 276°
2026-05-07 05:03 42.48208 -98.20275 29982 ft 430 kts 276°
2026-05-07 05:04 42.48029 -98.28374 29984 ft 433 kts 276°
2026-05-07 05:04 42.47842 -98.36473 29978 ft 432 kts 276°
2026-05-07 05:05 42.47655 -98.44441 29983 ft 434 kts 276°
2026-05-07 05:05 42.47456 -98.52634 29980 ft 435 kts 276°
2026-05-07 05:06 42.47252 -98.60731 29980 ft 435 kts 276°
2026-05-07 05:06 42.46779 -98.68915 29990 ft 443 kts 266°
2026-05-07 05:07 42.45452 -98.77129 29977 ft 446 kts 265°
2026-05-07 05:07 42.44054 -98.85313 29982 ft 449 kts 265°
2026-05-07 05:08 42.42619 -98.93461 29988 ft 448 kts 265°
2026-05-07 05:08 42.41165 -99.01617 29982 ft 450 kts 265°
2026-05-07 05:09 42.39688 -99.09827 29983 ft 448 kts 264°
2026-05-07 05:09 42.38208 -99.18004 29977 ft 448 kts 264°
2026-05-07 05:10 42.36724 -99.26166 29977 ft 447 kts 264°
2026-05-07 05:10 42.35234 -99.34327 29982 ft 450 kts 264°
2026-05-07 05:11 42.33737 -99.42484 29984 ft 451 kts 264°
2026-05-07 05:11 42.32221 -99.50703 29976 ft 451 kts 264°
2026-05-07 05:12 42.30701 -99.58916 29979 ft 452 kts 264°
2026-05-07 05:12 42.29173 -99.67127 29981 ft 450 kts 264°
2026-05-07 05:13 42.27645 -99.75318 29986 ft 452 kts 264°
2026-05-07 05:13 42.26104 -99.83536 29991 ft 454 kts 264°
2026-05-07 05:14 42.24554 -99.91761 29983 ft 454 kts 264°
2026-05-07 05:14 42.22999 -99.99979 29977 ft 452 kts 263°
2026-05-07 05:15 42.21446 -100.08161 29983 ft 455 kts 263°
2026-05-07 05:15 42.19869 -100.16421 29985 ft 454 kts 264°
2026-05-07 05:16 42.18298 -100.24631 29977 ft 454 kts 264°
2026-05-07 05:16 42.16714 -100.32864 29975 ft 454 kts 263°
2026-05-07 05:17 42.15132 -100.41045 29981 ft 454 kts 264°
2026-05-07 05:17 42.13526 -100.49326 29976 ft 456 kts 264°
2026-05-07 05:18 42.11924 -100.57546 29972 ft 456 kts 263°
2026-05-07 05:18 42.10318 -100.65748 29972 ft 453 kts 263°
2026-05-07 05:19 42.08699 -100.74006 29980 ft 458 kts 263°
2026-05-07 05:19 42.07054 -100.82316 29978 ft 459 kts 262°
2026-05-07 05:20 42.05415 -100.90576 29967 ft 459 kts 263°
2026-05-07 05:20 42.03759 -100.98889 29970 ft 461 kts 263°
2026-05-07 05:21 42.01284 -101.11259 29963 ft 461 kts 262°
2026-05-07 05:22 41.99611 -101.19570 29962 ft 458 kts 262°
2026-05-07 05:22 41.97950 -101.27795 29971 ft 458 kts 262°
2026-05-07 05:23 41.96281 -101.36028 29970 ft 459 kts 262°
2026-05-07 05:23 41.94590 -101.44289 29971 ft 461 kts 262°
2026-05-07 05:24 41.92894 -101.52572 29965 ft 459 kts 262°
2026-05-07 05:24 41.91201 -101.60819 29972 ft 462 kts 262°
2026-05-07 05:25 41.89493 -101.69106 29965 ft 460 kts 261°
2026-05-07 05:25 41.87795 -101.77310 29966 ft 457 kts 261°
2026-05-07 05:26 41.86088 -101.85538 29974 ft 460 kts 261°
2026-05-07 05:26 41.84368 -101.93803 29974 ft 461 kts 261°
2026-05-07 05:27 41.82549 -102.02063 29962 ft 463 kts 259°
2026-05-07 05:27 41.80759 -102.10294 29970 ft 461 kts 260°
2026-05-07 05:28 41.78965 -102.18534 29973 ft 463 kts 260°
2026-05-07 05:28 41.77246 -102.26514 29965 ft 463 kts 260°
2026-05-07 05:29 41.75434 -102.34965 29974 ft 461 kts 259°
2026-05-07 05:29 41.73620 -102.43214 29979 ft 462 kts 259°
2026-05-07 05:30 41.71803 -102.51466 29968 ft 463 kts 258°
2026-05-07 05:30 41.69999 -102.59660 29976 ft 460 kts 259°
2026-05-07 05:31 41.68202 -102.67865 29966 ft 463 kts 258°
2026-05-07 05:31 41.66386 -102.76131 29974 ft 463 kts 261°
2026-05-07 05:32 41.64832 -102.84450 29991 ft 463 kts 262°
2026-05-07 05:32 41.63168 -102.92685 29995 ft 460 kts 261°
2026-05-07 05:33 41.61419 -103.00913 30012 ft 462 kts 261°
2026-05-07 05:33 41.59634 -103.09121 30003 ft 462 kts 260°
2026-05-07 05:34 41.57825 -103.17341 30008 ft 461 kts 260°
2026-05-07 05:34 41.56014 -103.25517 30002 ft 463 kts 260°
2026-05-07 05:35 41.54187 -103.33723 30023 ft 461 kts 260°
2026-05-07 05:35 41.52349 -103.41944 30022 ft 462 kts 260°
2026-05-07 05:36 41.50520 -103.50093 30026 ft 462 kts 260°
2026-05-07 05:36 41.48666 -103.58330 30027 ft 464 kts 260°
2026-05-07 05:37 41.46818 -103.66495 30031 ft 461 kts 259°
2026-05-07 05:37 41.44964 -103.74670 30033 ft 462 kts 259°
2026-05-07 05:38 41.43093 -103.82881 30052 ft 463 kts 259°
2026-05-07 05:38 41.41225 -103.91051 30060 ft 464 kts 259°
2026-05-07 05:39 41.39346 -103.99242 30065 ft 464 kts 259°
2026-05-07 05:39 41.37456 -104.07448 30062 ft 463 kts 259°
2026-05-07 05:40 41.35567 -104.15620 30073 ft 464 kts 259°
2026-05-07 05:40 41.33662 -104.23827 30081 ft 466 kts 259°
2026-05-07 05:41 41.31752 -104.32030 30076 ft 465 kts 260°
2026-05-07 05:41 41.29843 -104.40196 30060 ft 462 kts 260°
2026-05-07 05:42 41.27910 -104.48360 30068 ft 463 kts 259°
2026-05-07 05:42 41.25982 -104.56516 30071 ft 464 kts 260°
2026-05-07 05:43 41.24070 -104.64690 30065 ft 465 kts 260°
2026-05-07 05:43 41.22127 -104.72904 30019 ft 464 kts 259°
2026-05-07 05:44 41.19789 -104.80908 30035 ft 472 kts 252°
2026-05-07 05:44 41.17082 -104.88869 30028 ft 471 kts 252°
2026-05-07 05:45 41.14375 -104.96755 30026 ft 472 kts 252°
2026-05-07 05:45 41.11653 -105.04633 30037 ft 471 kts 252°
2026-05-07 05:46 41.08941 -105.12453 30098 ft 470 kts 252°
2026-05-07 05:46 41.06187 -105.20372 30098 ft 471 kts 252°
2026-05-07 05:47 41.03463 -105.28178 30120 ft 470 kts 252°
2026-05-07 05:47 41.00708 -105.36053 30152 ft 473 kts 252°
2026-05-07 05:48 40.97959 -105.43890 30138 ft 472 kts 252°
2026-05-07 05:48 40.95198 -105.51736 30193 ft 470 kts 252°
2026-05-07 05:49 40.92438 -105.59559 30179 ft 471 kts 252°
2026-05-07 05:49 40.89668 -105.67386 30223 ft 470 kts 251°
2026-05-07 05:50 40.86892 -105.75217 30243 ft 472 kts 251°
2026-05-07 05:50 40.84121 -105.83002 30280 ft 470 kts 251°
2026-05-07 05:51 40.81338 -105.90804 30299 ft 472 kts 251°
2026-05-07 05:51 40.78557 -105.98580 30321 ft 469 kts 251°
2026-05-07 05:52 40.75745 -106.06422 30318 ft 474 kts 251°
2026-05-07 05:52 40.72940 -106.14220 30316 ft 472 kts 251°
2026-05-07 05:53 40.70146 -106.21970 30312 ft 472 kts 251°
2026-05-07 05:53 40.67315 -106.29800 30297 ft 472 kts 251°
2026-05-07 05:54 40.64497 -106.37575 30311 ft 475 kts 251°
2026-05-07 05:54 40.61646 -106.45412 30319 ft 473 kts 251°
2026-05-07 05:55 40.58827 -106.53149 30321 ft 473 kts 251°
2026-05-07 05:55 40.55982 -106.60934 30308 ft 474 kts 250°
2026-05-07 05:56 40.53122 -106.68735 30309 ft 475 kts 250°
2026-05-07 05:56 40.50256 -106.76537 30297 ft 476 kts 250°
2026-05-07 05:57 40.47361 -106.84392 30278 ft 477 kts 250°
2026-05-07 05:57 40.44479 -106.92193 30278 ft 476 kts 250°
2026-05-07 05:58 40.41607 -106.99944 30284 ft 477 kts 250°
2026-05-07 05:58 40.38709 -107.07746 30278 ft 475 kts 250°
2026-05-07 05:59 40.35814 -107.15520 30301 ft 476 kts 250°
2026-05-07 05:59 40.32905 -107.23312 30309 ft 476 kts 250°
2026-05-07 06:00 40.29993 -107.31090 30305 ft 476 kts 250°
2026-05-07 06:00 40.27097 -107.38804 30310 ft 476 kts 250°
2026-05-07 06:01 40.24178 -107.46558 30299 ft 475 kts 250°
2026-05-07 06:01 40.21245 -107.54331 30289 ft 476 kts 250°
2026-05-07 06:02 40.18338 -107.62013 30271 ft 475 kts 250°
2026-05-07 06:02 40.15410 -107.69733 30279 ft 475 kts 249°
2026-05-07 06:03 40.12468 -107.77471 30258 ft 476 kts 249°
2026-05-07 06:03 40.09513 -107.85216 30236 ft 476 kts 249°
2026-05-07 06:04 40.06824 -107.92975 30235 ft 467 kts 259°
2026-05-07 06:04 40.05474 -108.01201 30231 ft 462 kts 265°
2026-05-07 06:05 40.04266 -108.09394 30243 ft 463 kts 264°
2026-05-07 06:05 40.03046 -108.17646 30251 ft 462 kts 265°
2026-05-07 06:06 40.01826 -108.25857 30251 ft 463 kts 265°
2026-05-07 06:06 40.00605 -108.34054 30251 ft 466 kts 265°
2026-05-07 06:07 39.99359 -108.42350 30234 ft 464 kts 265°
2026-05-07 06:07 39.98122 -108.50565 30237 ft 466 kts 265°
2026-05-07 06:08 39.96868 -108.58853 30233 ft 467 kts 264°
2026-05-07 06:08 39.95610 -108.67114 30228 ft 466 kts 264°
2026-05-07 06:09 39.94340 -108.75420 30231 ft 467 kts 264°
2026-05-07 06:09 39.93068 -108.83683 30227 ft 466 kts 264°
2026-05-07 06:10 39.91790 -108.91961 30232 ft 471 kts 264°
2026-05-07 06:10 39.90498 -109.00280 30233 ft 471 kts 264°
2026-05-07 06:11 39.89193 -109.08639 30218 ft 470 kts 264°
2026-05-07 06:11 39.87895 -109.16917 30218 ft 470 kts 264°
2026-05-07 06:12 39.86587 -109.25215 30219 ft 469 kts 264°
2026-05-07 06:12 39.85277 -109.33483 30217 ft 468 kts 264°
2026-05-07 06:13 39.83958 -109.41773 30214 ft 468 kts 264°
2026-05-07 06:13 39.82639 -109.50024 30217 ft 468 kts 264°
2026-05-07 06:14 39.81311 -109.58293 30219 ft 469 kts 264°
2026-05-07 06:14 39.79964 -109.66633 30220 ft 470 kts 263°
2026-05-07 06:15 39.78615 -109.74944 30220 ft 471 kts 263°
2026-05-07 06:15 39.77261 -109.83252 30219 ft 470 kts 263°
2026-05-07 06:16 39.75900 -109.91559 30214 ft 470 kts 263°
2026-05-07 06:16 39.74544 -109.99796 30219 ft 468 kts 263°
2026-05-07 06:17 39.73182 -110.08034 30213 ft 467 kts 263°
2026-05-07 06:17 39.71811 -110.16293 30222 ft 470 kts 263°
2026-05-07 06:18 39.70433 -110.24551 30230 ft 468 kts 263°
2026-05-07 06:18 39.69038 -110.32868 30247 ft 468 kts 263°
2026-05-07 06:19 39.67646 -110.41133 30250 ft 469 kts 263°
2026-05-07 06:19 39.66249 -110.49394 30250 ft 469 kts 263°
2026-05-07 06:20 39.64843 -110.57664 30250 ft 469 kts 263°
2026-05-07 06:20 39.63440 -110.65876 30229 ft 467 kts 262°
2026-05-07 06:21 39.62027 -110.74119 30214 ft 469 kts 262°
2026-05-07 06:21 39.60602 -110.82388 30219 ft 469 kts 262°
2026-05-07 06:22 39.59180 -110.90603 30272 ft 469 kts 262°
2026-05-07 06:22 39.57027 -111.02974 30296 ft 470 kts 262°
2026-05-07 06:23 39.55583 -111.11218 30305 ft 468 kts 262°
2026-05-07 06:23 39.54141 -111.19424 30314 ft 471 kts 262°
2026-05-07 06:24 39.52676 -111.27715 30324 ft 469 kts 262°
2026-05-07 06:24 39.51222 -111.35918 30305 ft 470 kts 262°
2026-05-07 06:25 39.49752 -111.44164 30275 ft 469 kts 262°
2026-05-07 06:25 39.48280 -111.52393 30273 ft 470 kts 262°
2026-05-07 06:26 39.46809 -111.60585 30271 ft 471 kts 262°
2026-05-07 06:26 39.45326 -111.68795 30278 ft 470 kts 261°
2026-05-07 06:27 39.43837 -111.77009 30289 ft 471 kts 261°
2026-05-07 06:27 39.42345 -111.85204 30267 ft 470 kts 261°
2026-05-07 06:28 39.40845 -111.93409 30268 ft 471 kts 261°
2026-05-07 06:28 39.39332 -112.01651 30271 ft 471 kts 261°
2026-05-07 06:29 39.37820 -112.09845 30266 ft 472 kts 261°
2026-05-07 06:29 39.36305 -112.18026 30270 ft 471 kts 261°
2026-05-07 06:30 39.34779 -112.26234 30273 ft 472 kts 261°
2026-05-07 06:30 39.33240 -112.34477 30250 ft 472 kts 261°
2026-05-07 06:31 39.31706 -112.42660 30196 ft 471 kts 261°
2026-05-07 06:31 39.30154 -112.50850 30178 ft 472 kts 259°
2026-05-07 06:32 39.28329 -112.58987 30206 ft 471 kts 258°
2026-05-07 06:32 39.26509 -112.67060 30246 ft 473 kts 257°
2026-05-07 06:33 39.24664 -112.75214 30247 ft 473 kts 258°
2026-05-07 06:33 39.23159 -112.81847 30251 ft 474 kts 258°
2026-05-07 06:34 39.21311 -112.89967 30246 ft 473 kts 258°
2026-05-07 06:34 39.19470 -112.98028 30245 ft 472 kts 258°
2026-05-07 06:35 39.17611 -113.06140 30254 ft 474 kts 258°
2026-05-07 06:35 39.15737 -113.14288 30252 ft 473 kts 258°
2026-05-07 06:36 39.13866 -113.22392 30260 ft 475 kts 257°
2026-05-07 06:36 39.11990 -113.30496 30263 ft 476 kts 257°
2026-05-07 06:37 39.10098 -113.38628 30272 ft 475 kts 258°
2026-05-07 06:37 39.08207 -113.46742 30284 ft 476 kts 257°
2026-05-07 06:38 39.06298 -113.54896 30288 ft 476 kts 257°
2026-05-07 06:38 39.04389 -113.63021 30277 ft 475 kts 257°
2026-05-07 06:39 39.02463 -113.71192 30268 ft 477 kts 257°
2026-05-07 06:39 39.00546 -113.79297 30262 ft 478 kts 257°
2026-05-07 06:40 38.98612 -113.87445 30265 ft 479 kts 257°
2026-05-07 06:40 38.96660 -113.95638 30265 ft 478 kts 257°
2026-05-07 06:41 38.94714 -114.03784 30268 ft 478 kts 257°
2026-05-07 06:41 38.92769 -114.11889 30284 ft 477 kts 256°
2026-05-07 06:42 38.90814 -114.20012 30307 ft 479 kts 256°
2026-05-07 06:42 38.88844 -114.28168 30316 ft 477 kts 257°
2026-05-07 06:43 38.86885 -114.36253 30300 ft 476 kts 257°
2026-05-07 06:43 38.84915 -114.44353 30286 ft 477 kts 257°
2026-05-07 06:44 38.82932 -114.52479 30286 ft 478 kts 257°
2026-05-07 06:44 38.81010 -114.60333 30297 ft 477 kts 257°
2026-05-07 06:45 38.79015 -114.68455 30323 ft 478 kts 256°
2026-05-07 06:45 38.77029 -114.76514 30349 ft 477 kts 256°
2026-05-07 06:46 38.75032 -114.84593 30337 ft 477 kts 256°
2026-05-07 06:46 38.73031 -114.92659 30316 ft 477 kts 256°
2026-05-07 06:47 38.71022 -115.00726 30301 ft 477 kts 256°
2026-05-07 06:47 38.69001 -115.08820 30303 ft 477 kts 256°
2026-05-07 06:48 38.66979 -115.16886 30306 ft 477 kts 256°
2026-05-07 06:48 38.64962 -115.24915 30307 ft 478 kts 256°
2026-05-07 06:49 38.62929 -115.32968 30305 ft 478 kts 256°
2026-05-07 06:49 38.60878 -115.41079 30306 ft 478 kts 256°
2026-05-07 06:50 38.58836 -115.49121 30302 ft 479 kts 256°
2026-05-07 06:50 38.56784 -115.57177 30305 ft 480 kts 256°
2026-05-07 06:51 38.54713 -115.65277 30306 ft 479 kts 255°
2026-05-07 06:51 38.52650 -115.73322 30299 ft 479 kts 255°
2026-05-07 06:52 38.50565 -115.81430 30300 ft 481 kts 255°
2026-05-07 06:52 38.48480 -115.89510 30308 ft 481 kts 255°
2026-05-07 06:53 38.46392 -115.97575 30313 ft 481 kts 255°
2026-05-07 06:53 38.44298 -116.05638 30315 ft 482 kts 255°
2026-05-07 06:54 38.42190 -116.13726 30311 ft 481 kts 255°
2026-05-07 06:54 38.40081 -116.21794 30309 ft 480 kts 255°
2026-05-07 06:55 38.37966 -116.29858 30311 ft 481 kts 255°
2026-05-07 06:55 38.35847 -116.37912 30313 ft 481 kts 255°
2026-05-07 06:56 38.33723 -116.45958 30316 ft 482 kts 255°
2026-05-07 06:56 38.31578 -116.54060 30319 ft 481 kts 255°
2026-05-07 06:57 38.29454 -116.62059 30318 ft 481 kts 255°
2026-05-07 06:57 38.27300 -116.70142 30315 ft 481 kts 254°
2026-05-07 06:58 38.25161 -116.78142 30311 ft 480 kts 254°
2026-05-07 06:58 38.23001 -116.86199 30304 ft 481 kts 254°
2026-05-07 06:59 38.20855 -116.94183 30303 ft 482 kts 254°
2026-05-07 06:59 38.18688 -117.02209 30299 ft 482 kts 254°
2026-05-07 07:00 38.16514 -117.10241 30267 ft 482 kts 254°
2026-05-07 07:00 38.14330 -117.18286 30289 ft 482 kts 254°
2026-05-07 07:01 38.12149 -117.26297 30301 ft 480 kts 254°
2026-05-07 07:01 38.10249 -117.34364 30301 ft 475 kts 257°
2026-05-07 07:02 38.08403 -117.42372 30307 ft 475 kts 257°
2026-05-07 07:02 38.06546 -117.50385 30313 ft 476 kts 257°
2026-05-07 07:03 38.04681 -117.58401 30306 ft 475 kts 257°
2026-05-07 07:03 38.02798 -117.66464 30297 ft 476 kts 256°
2026-05-07 07:04 38.00928 -117.74447 30281 ft 475 kts 257°
2026-05-07 07:04 37.99777 -117.82601 30270 ft 471 kts 265°
2026-05-07 07:05 37.98889 -117.90876 30270 ft 472 kts 265°
2026-05-07 07:05 37.98016 -117.99075 30268 ft 472 kts 265°
2026-05-07 07:06 37.97139 -118.07309 30281 ft 470 kts 265°
2026-05-07 07:06 37.96263 -118.15502 30317 ft 470 kts 265°
2026-05-07 07:07 37.95378 -118.23719 30331 ft 471 kts 265°
2026-05-07 07:07 37.94496 -118.31866 30349 ft 471 kts 265°
2026-05-07 07:08 37.93598 -118.40101 30357 ft 472 kts 265°
2026-05-07 07:08 37.92692 -118.48348 30362 ft 473 kts 265°
2026-05-07 07:09 37.91786 -118.56547 30357 ft 470 kts 265°
2026-05-07 07:09 37.90876 -118.64730 30368 ft 470 kts 265°
2026-05-07 07:10 37.89958 -118.72935 30379 ft 471 kts 264°
2026-05-07 07:10 37.89034 -118.81141 30369 ft 472 kts 265°
2026-05-07 07:11 37.88106 -118.89326 30381 ft 472 kts 265°
2026-05-07 07:11 37.87176 -118.97473 30384 ft 472 kts 265°
2026-05-07 07:12 37.86234 -119.05682 30397 ft 471 kts 265°
2026-05-07 07:12 37.85285 -119.13893 30420 ft 470 kts 265°